Date String (YYYY-MM-DD hh:mm:ss) UTC,Instrument flags,Ambient pressure (hPa),Sample flow (lpm),Bypass flow (lpm),Sample temperature (°C),Ambient temperature (°C),ASC tube jacket temperature (°C),LED temperature (°C),Box temperature (°C),Sample RH (%),Span deviation,Mass concentration (μg/m³),Mass concentration (μg/m³),Mass concentration (μg/m³)
DateTimeUTC,F1_M11,P_M11,Q1_M11,Q2_M11,T1_M11,T2_M11,T3_M11,T4_M11,T5_M11,U1_M11,ZSPAN_M11,X0_M11,X2_M11,X1_M11
2023-02-09 05:00:00,,0824.2,5.02,0.00,22.6,21.6,00.0,31.3,24.3,08.5,0000.0,0003.75,0001.00,0000.72
2023-02-09 05:01:00,,0824.2,4.97,0.00,22.6,21.4,00.0,31.3,24.3,08.4,0000.0,0003.81,0001.01,0000.72
2023-02-09 05:02:00,,0824.2,5.02,0.00,22.5,21.3,00.0,31.3,24.3,08.2,0000.0,0003.86,0001.03,0000.71
2023-02-09 05:03:00,,0824.3,5.03,0.00,22.5,21.2,00.0,31.3,24.3,08.1,0000.0,0003.71,0001.06,0000.72
2023-02-09 05:04:00,,0824.2,5.02,0.00,22.5,21.1,00.0,31.3,24.2,08.3,0000.0,0003.35,0001.03,0000.71
2023-02-09 05:05:00,,0824.3,4.98,0.00,22.5,21.1,00.0,31.3,24.2,08.6,0000.0,0002.18,0001.01,0000.71
2023-02-09 05:06:00,,0824.2,4.96,0.00,22.5,21.0,00.0,31.3,24.2,07.7,0000.0,0001.70,0001.02,0000.70
2023-02-09 05:07:00,,0824.2,5.00,0.00,22.5,21.0,00.0,31.3,24.1,07.8,0000.0,0001.75,0001.04,0000.70
2023-02-09 05:08:00,,0824.2,5.00,0.00,22.4,20.9,00.0,31.3,24.1,07.9,0000.0,0001.73,0001.03,0000.70
2023-02-09 05:09:00,,0824.2,4.99,0.00,22.4,20.8,00.0,31.3,24.0,07.7,0000.0,0002.77,0001.04,0000.68
2023-02-09 05:10:00,,0824.3,4.98,0.00,22.4,20.8,00.0,31.3,24.0,08.0,0000.0,0003.45,0001.04,0000.68
2023-02-09 05:11:00,,0824.3,4.99,0.00,22.3,20.7,00.0,31.3,23.9,07.9,0000.0,0003.41,0001.04,0000.68
2023-02-09 05:12:00,,0824.2,5.02,0.00,22.3,20.6,00.0,31.2,23.9,07.7,0000.0,0003.40,0001.05,0000.69
2023-02-09 05:13:00,,0824.2,4.98,0.00,22.3,20.6,00.0,31.2,23.8,07.3,0000.0,0003.45,0001.07,0000.70
2023-02-09 05:14:00,,0824.3,5.03,0.00,22.2,20.6,00.0,31.2,23.8,06.6,0000.0,0003.45,0001.06,0000.71
2023-02-09 05:15:00,,0824.2,5.05,0.00,22.3,21.5,00.0,31.1,24.1,06.5,0000.0,0003.47,0001.06,0000.70
2023-02-09 05:16:00,,0824.4,5.03,0.00,22.4,22.4,00.0,31.1,24.4,06.4,0000.0,0003.51,0001.07,0000.70
2023-02-09 05:17:00,,0824.3,5.01,0.00,22.5,22.7,00.0,31.2,24.5,05.8,0000.0,0003.65,0001.08,0000.72
2023-02-09 05:18:00,,0824.2,5.01,0.00,22.5,22.3,00.0,31.2,24.4,06.2,0000.0,0004.00,0001.09,0000.71
2023-02-09 05:19:00,,0824.3,5.01,0.00,22.5,22.0,00.0,31.3,24.3,06.1,0000.0,0004.27,0001.08,0000.72
2023-02-09 05:20:00,,0824.3,4.96,0.00,22.5,21.7,00.0,31.3,24.3,06.2,0000.0,0003.38,0001.07,0000.74
2023-02-09 05:21:00,,0824.4,4.91,0.00,22.5,21.5,00.0,31.3,24.2,06.3,0000.0,0002.50,0001.07,0000.75
2023-02-09 05:22:00,,0824.4,5.04,0.00,22.5,21.3,00.0,31.3,24.2,06.7,0000.0,0002.46,0001.06,0000.75
2023-02-09 05:23:00,,0824.4,5.01,0.00,22.5,21.2,00.0,31.3,24.2,06.2,0000.0,0002.43,0001.05,0000.75
2023-02-09 05:24:00,,0824.4,5.01,0.00,22.4,21.0,00.0,31.3,24.1,05.7,0000.0,0002.31,0001.01,0000.74
2023-02-09 05:25:00,,0824.4,5.00,0.00,22.4,20.9,00.0,31.3,24.1,05.8,0000.0,0002.28,0000.99,0000.73
2023-02-09 05:26:00,,0824.5,4.99,0.00,22.4,20.9,00.0,31.3,24.0,05.7,0000.0,0002.32,0001.00,0000.73
2023-02-09 05:27:00,,0824.4,5.00,0.00,22.4,20.9,00.0,31.3,24.0,05.9,0000.0,0002.31,0001.00,0000.72
2023-02-09 05:28:00,,0824.4,4.96,0.00,22.4,20.8,00.0,31.3,24.0,06.1,0000.0,0002.18,0000.97,0000.71
2023-02-09 05:29:00,,0824.5,5.00,0.00,22.3,20.8,00.0,31.3,24.0,06.3,0000.0,0001.98,0000.96,0000.70
2023-02-09 05:30:00,,0824.7,5.01,0.00,22.3,20.8,00.0,31.2,24.0,06.6,0000.0,0001.46,0000.96,0000.70
2023-02-09 05:31:00,,0824.6,5.01,0.00,22.3,20.8,00.0,31.2,23.9,06.4,0000.0,0002.79,0000.98,0000.69
2023-02-09 05:32:00,,0825.0,4.95,0.00,22.3,20.8,00.0,31.2,23.9,06.2,0000.0,0002.78,0000.97,0000.69
2023-02-09 05:33:00,,0825.0,5.00,0.00,22.3,20.7,00.0,31.2,23.9,05.7,0000.0,0003.19,0000.95,0000.68
2023-02-09 05:34:00,,0824.5,5.00,0.00,22.2,20.7,00.0,31.2,23.9,05.8,0000.0,0004.38,0000.96,0000.67
2023-02-09 05:35:00,,0824.6,5.02,0.00,22.2,20.7,00.0,31.2,23.9,05.8,0000.0,0004.52,0000.98,0000.67
2023-02-09 05:36:00,,0824.7,5.00,0.00,22.2,20.7,00.0,31.2,23.9,05.8,0000.0,0004.52,0000.98,0000.68
2023-02-09 05:37:00,,0824.5,5.00,0.00,22.2,20.8,00.0,31.1,23.9,05.8,0000.0,0004.47,0000.95,0000.68
2023-02-09 05:38:00,,0824.7,4.98,0.00,22.3,21.7,00.0,31.1,24.2,05.7,0000.0,0004.43,0000.93,0000.68
2023-02-09 05:39:00,,0824.5,5.04,0.00,22.4,22.7,00.0,31.1,24.4,05.6,0000.0,0004.47,0000.95,0000.70
2023-02-09 05:40:00,,0824.6,4.96,0.00,22.5,22.9,00.0,31.1,24.5,05.6,0000.0,0004.45,0000.95,0000.71
2023-02-09 05:41:00,,0824.7,5.02,0.00,22.5,22.4,00.0,31.2,24.5,05.6,0000.0,0004.46,0000.97,0000.72
2023-02-09 05:42:00,,0824.5,5.00,0.00,22.5,22.1,00.0,31.2,24.4,05.6,0000.0,0003.24,0000.97,0000.73
2023-02-09 05:43:00,,0824.6,5.01,0.00,22.5,21.8,00.0,31.3,24.3,05.6,0000.0,0003.26,0000.98,0000.74
2023-02-09 05:44:00,,0824.6,5.10,0.00,22.5,21.6,00.0,31.3,24.3,05.5,0000.0,0002.89,0001.00,0000.75
2023-02-09 05:45:00,,0824.6,5.03,0.00,22.5,21.4,00.0,31.3,24.3,05.7,0000.0,0001.89,0001.00,0000.76
2023-02-09 05:46:00,,0824.6,5.05,0.00,22.5,21.2,00.0,31.3,24.2,05.6,0000.0,0001.78,0000.99,0000.77
2023-02-09 05:47:00,,0824.6,4.97,0.00,22.5,21.1,00.0,31.3,24.2,05.6,0000.0,0001.72,0000.98,0000.77
2023-02-09 05:48:00,,0824.8,5.01,0.00,22.5,21.0,00.0,31.3,24.2,05.6,0000.0,0001.70,0000.99,0000.78
2023-02-09 05:49:00,,0824.6,4.98,0.00,22.5,21.0,00.0,31.3,24.2,05.3,0000.0,0001.76,0001.02,0000.79
2023-02-09 05:50:00,,0824.8,5.02,0.00,22.4,20.9,00.0,31.3,24.2,05.3,0000.0,0001.84,0001.03,0000.79
2023-02-09 05:51:00,,0824.6,5.01,0.00,22.4,20.8,00.0,31.3,24.2,05.6,0000.0,0001.87,0001.04,0000.80
2023-02-09 05:52:00,,0824.6,5.00,0.00,22.4,20.8,00.0,31.3,24.1,05.6,0000.0,0001.82,0001.02,0000.80
2023-02-09 05:53:00,,0824.8,5.05,0.00,22.4,20.8,00.0,31.3,24.0,05.6,0000.0,0001.77,0001.00,0000.80
2023-02-09 05:54:00,,0824.8,5.03,0.00,22.4,20.8,00.0,31.3,24.0,05.4,0000.0,0001.75,0000.99,0000.79
2023-02-09 05:55:00,,0824.6,5.00,0.00,22.3,20.7,00.0,31.2,24.0,05.4,0000.0,0001.73,0001.01,0000.80
2023-02-09 05:56:00,,0824.6,4.98,0.00,22.3,20.7,00.0,31.2,23.9,05.4,0000.0,0001.51,0000.99,0000.80
2023-02-09 05:57:00,,0824.6,4.99,0.00,22.3,20.6,00.0,31.2,23.9,05.3,0000.0,0001.52,0001.01,0000.82
2023-02-09 05:58:00,,0824.7,4.98,0.00,22.3,20.6,00.0,31.2,23.9,05.5,0000.0,0001.63,0001.05,0000.84
2023-02-09 05:59:00,,0824.6,4.98,0.00,22.2,20.6,00.0,31.2,23.8,05.8,0000.0,0001.79,0001.10,0000.84
